GFSMA_con_sbcape_000.txt.gz
CAPE
0 0 0 0 0 0 0 0 0 0 0 0 0 0 0 0 0 0 0 0 0 0 0 0 0 0 0 0 0 0 0 0 0 0 0 0 0 1 3 6 9 8 10
0 0 0 0 0 0 0 0 0 0 0 0 0 0 0 0 0 0 0 0 0 0 0 0 0 0 0 0 0 0 0 0 0 0 0 0 2 5 7 9 13 20 34
0 0 0 0 0 0 0 0 0 0 0 0 0 0 0 0 0 0 0 0 0 0 0 0 0 0 0 0 0 0 0 0 20 24 10 0 9 13 5 7 8 40 46
0 0 0 0 0 0 0 0 0 0 0 0 0 0 0 0 0 0 0 0 0 0 0 0 0 0 0 0 0 0 0 3 55 82 121 164 165 97 0 3 18 45 85
0 0 0 0 0 0 0 0 0 0 0 0 0 0 0 0 0 0 0 0 0 0 0 0 0 0 0 0 0 0 0 36 79 132 139 172 193 9 2 31 69 106 143
0 0 0 0 0 0 0 0 0 0 0 0 0 0 0 0 0 0 0 0 0 0 0 0 0 0 0 0 0 0 0 6 121 163 199 248 46 3 54 126 160 187 244
0 0 0 0 0 0 0 0 0 0 0 0 0 0 0 0 0 0 0 0 0 0 0 0 0 0 0 0 1 0 3 4 7 136 275 347 66 83 131 143 209 199 208
0 0 0 0 0 0 0 0 0 0 0 0 0 0 0 0 0 0 0 0 0 0 0 0 0 0 0 0 0 20 96 25 27 52 91 164 175 173 187 180 158 154 118
0 0 0 0 0 0 0 0 0 0 0 0 0 0 0 0 0 0 0 0 0 0 0 0 0 0 0 0 0 0 26 86 30 140 221 245 257 189 160 184 166 72 37
0 0 0 0 0 0 1 0 0 0 0 0 0 1 0 0 0 0 0 0 0 0 0 0 0 0 0 0 0 0 0 14 13 46 213 294 185 227 211 133 34 13 14
0 0 0 0 0 1 7 4 6 1 0 0 0 0 2 0 0 0 0 0 0 0 0 0 0 0 0 0 0 0 3 65 79 130 211 245 301 217 82 6 0 0 3
0 0 0 0 0 0 7 27 53 43 22 7 11 2 1 1 0 0 0 0 0 0 0 0 0 0 0 0 0 0 0 32 89 101 249 282 193 23 0 0 0 0 2
0 0 0 0 0 0 17 78 122 116 100 69 34 28 28 27 4 0 0 0 0 0 0 0 0 0 0 0 0 0 0 5 23 2 112 133 5 0 0 0 0 0 1
0 0 0 2 2 14 49 116 192 187 200 191 150 112 103 89 99 60 5 0 0 0 0 0 0 0 0 0 0 0 0 0 0 0 0 1 0 0 0 0 0 0 0
0 0 0 0 0 38 73 95 119 195 194 221 213 224 250 229 181 112 73 44 37 2 2 1 0 0 0 0 0 0 0 0 0 0 0 0 0 0 0 0 0 0 0
0 0 0 0 0 0 0 24 106 148 167 194 207 254 278 295 260 155 92 71 76 59 13 15 7 0 0 0 0 0 0 0 0 0 0 0 0 0 0 0 0 0 0
0 0 0 0 0 0 0 0 0 7 90 178 208 224 247 284 276 196 152 133 108 111 98 31 51 30 0 0 0 0 0 0 0 0 0 0 0 0 0 0 0 0 0
0 0 0 0 0 0 0 0 0 0 0 6 86 198 210 239 272 274 213 168 166 141 132 99 88 66 0 0 0 0 0 0 0 0 0 0 0 0 0 0 0 0 0
0 0 0 0 0 0 0 0 0 0 0 0 14 83 137 209 249 282 312 298 216 155 172 177 94 93 0 0 0 0 0 0 0 0 0 0 0 0 0 0 0 0 0
0 0 0 0 0 0 0 0 0 0 1 5 5 16 62 135 239 339 365 325 276 277 179 181 105 64 0 0 0 0 0 0 0 0 0 0 0 0 0 0 0 0 0
0 0 0 0 0 0 0 0 0 0 0 0 0 0 0 1 24 106 330 358 360 317 276 236 79 15 0 0 0 0 0 0 0 0 0 0 0 0 0 0 0 0 0
0 0 0 0 0 0 0 0 0 0 0 0 0 0 0 0 11 69 70 33 115 294 205 230 84 8 0 0 0 0 0 0 0 0 0 0 0 0 0 0 0 0 0
0 0 0 0 0 0 0 1 12 0 1 1 2 3 0 7 6 48 113 184 39 3 21 99 208 10 0 0 0 0 0 0 0 0 0 0 0 0 0 0 0 0 0
0 0 0 0 0 0 5 25 13 1 0 0 0 0 9 11 23 71 95 95 76 120 81 5 21 42 5 0 0 0 0 0 0 0 0 0 0 0 0 0 0 0 0
0 0 0 0 0 0 1 8 0 0 0 0 7 3 5 5 0 10 15 12 2 66 0 0 1 0 0 0 0 0 0 0 0 0 0 0 0 0 0 0 0 0 0
0 0 0 0 0 0 0 1 0 0 0 0 0 0 5 5 5 8 17 8 7 14 1 0 0 0 0 0 2 0 0 0 0 0 0 0 0 0 0 0 0 0 0

GFSMA_con_sbcape_003.txt.gz
CAPE
0 0 0 0 0 0 0 0 0 0 0 0 0 0 0 0 0 0 0 0 0 0 0 0 0 0 0 0 0 0 0 0 0 0 0 0 0 0 0 1 3 6 13
0 0 0 0 0 0 0 0 0 0 0 0 0 0 0 0 0 0 0 0 0 0 0 0 0 0 0 0 0 0 15 4 0 0 0 0 0 2 4 10 11 18 30
0 0 0 0 0 0 0 0 0 0 0 0 0 0 0 0 0 0 0 0 0 0 0 0 0 0 0 0 0 0 75 102 126 160 184 191 199 178 1 8 11 14 36
0 0 0 0 0 0 0 0 0 0 0 0 0 0 0 0 0 0 0 0 0 0 0 0 0 0 0 0 0 0 22 93 137 181 222 260 297 302 29 5 5 6 33
0 0 0 0 0 0 0 0 0 0 0 0 0 0 0 0 0 0 0 0 0 0 0 0 0 0 0 0 0 0 0 112 141 205 255 321 348 414 105 46 157 68 148
0 0 0 0 0 0 0 0 0 0 0 0 0 0 0 0 0 0 0 0 0 0 0 0 0 0 0 0 0 0 0 38 151 260 369 396 449 501 162 85 132 243 320
0 0 0 0 0 0 0 0 0 0 0 0 0 0 0 0 0 0 0 0 0 0 0 0 0 0 0 0 0 0 0 0 94 198 310 508 536 475 167 170 295 387 361
0 0 0 0 0 0 0 0 0 0 0 0 0 0 0 0 0 0 0 0 0 0 0 0 0 0 0 0 0 0 0 1 0 16 234 462 596 348 240 337 399 445 377
0 0 0 0 0 0 0 0 0 0 0 0 0 0 0 0 0 0 0 0 0 0 0 0 0 0 0 0 0 0 0 0 0 10 90 274 490 332 421 492 529 460 337
0 0 0 0 0 0 0 0 0 0 0 0 0 0 0 0 0 0 0 0 0 0 0 0 0 0 0 0 0 0 0 0 0 13 117 295 465 594 623 532 508 399 362
0 0 0 0 0 1 0 1 14 14 2 0 0 0 0 0 0 0 0 0 0 0 0 0 0 0 0 0 0 0 0 0 3 43 145 281 482 755 669 528 472 361 182
0 0 0 1 3 5 10 16 45 73 83 53 14 2 0 0 0 0 0 0 0 0 0 0 0 0 0 0 0 0 0 0 86 122 185 400 570 709 624 571 419 207 19
0 0 0 0 17 32 21 35 76 117 162 203 195 129 77 16 21 40 4 0 0 0 0 0 0 0 0 0 0 0 0 0 32 236 230 441 778 901 625 498 272 41 3
0 0 0 0 0 1 46 120 180 202 202 186 212 261 239 190 136 61 56 57 27 3 0 0 0 0 0 0 0 0 0 0 1 116 408 531 530 550 410 112 20 0 0
0 0 0 0 0 0 0 0 0 33 84 121 128 186 234 210 222 217 181 162 122 66 15 4 0 0 0 0 0 0 0 0 0 33 126 146 136 169 31 4 0 0 0
0 0 0 0 0 0 0 0 0 0 0 0 17 107 137 179 223 247 267 213 191 157 94 18 5 0 0 0 0 0 0 0 0 0 10 3 5 0 0 0 0 0 0
0 0 0 0 0 0 0 0 0 0 0 0 0 0 20 96 155 189 214 232 218 196 173 37 43 11 0 0 0 0 0 0 0 0 0 0 0 0 0 0 0 0 0
0 0 0 0 0 0 0 0 0 0 0 0 0 6 11 43 83 160 223 240 255 247 257 140 58 51 0 0 0 0 0 0 0 0 0 0 0 1 2 2 0 0 0
0 0 0 0 0 0 0 0 0 0 0 4 5 10 16 21 17 25 82 166 201 224 255 266 151 169 68 0 0 0 0 0 0 0 1 2 1 3 4 3 0 0 0
0 0 0 0 0 0 0 0 0 0 0 0 0 1 1 7 33 31 38 66 131 182 206 192 192 173 119 0 0 0 0 0 0 0 0 0 4 8 7 3 5 2 2
0 0 0 0 0 0 0 0 0 0 0 2 2 2 6 13 3 2 16 14 58 82 119 138 118 159 129 1 0 0 0 0 0 0 0 0 0 0 0 6 0 2 1
0 0 0 0 0 0 0 0 0 2 20 0 0 0 0 0 5 17 49 33 19 45 46 46 56 75 47 39 0 0 0 0 0 0 0 0 0 0 0 0 0 0 0
0 0 0 0 0 0 0 24 30 1 0 0 0 0 0 11 7 12 4 4 2 8 8 40 55 49 117 118 37 0 0 0 0 0 0 0 0 0 0 0 0 0 0
0 0 0 0 0 0 0 25 92 0 0 0 0 0 0 0 0 7 21 13 6 8 8 24 34 36 83 80 120 0 0 0 0 0 0 0 0 0 0 0 0 0 0
0 0 0 0 0 0 0 53 1 0 0 0 0 0 0 0 0 14 17 12 6 4 2 3 0 0 0 0 0 0 0 0 0 0 0 0 0 0 0 0 0 0 0
0 0 0 0 0 0 0 0 0 0 0 0 0 0 0 0 4 17 1 3 4 0 0 0 0 1 0 0 0 0 0 0 0 0 0 0 0 0 0 0 0 0 0

GFSMA_con_sbcape_006.txt.gz
CAPE
0 0 0 0 0 0 0 0 0 0 0 0 0 0 0 0 0 0 0 0 0 0 0 0 0 0 2 1 0 0 0 0 0 0 0 0 0 0 0 0 2 3 4
0 0 0 0 0 0 0 0 0 0 0 0 0 0 0 0 0 0 0 0 0 0 0 0 0 0 2 4 6 37 78 34 12 37 75 69 68 42 4 14 17 20 22
0 0 0 0 0 0 0 0 0 0 0 0 0 0 0 0 0 0 0 0 0 0 0 0 0 0 6 0 4 34 246 272 173 182 247 312 317 320 200 88 77 70 80
0 0 0 0 0 0 0 0 0 0 0 0 0 0 0 0 0 0 0 0 0 0 0 0 0 0 0 0 0 1 179 239 301 328 300 367 443 487 516 415 382 261 140
0 0 0 0 0 0 0 0 0 0 0 0 0 0 0 0 0 0 0 0 0 0 0 0 0 0 0 0 0 0 20 162 196 263 373 436 465 532 601 637 552 479 294
0 0 0 0 0 0 0 0 0 0 0 0 0 0 0 0 0 0 0 0 0 0 0 0 0 0 0 0 0 0 0 54 99 210 359 454 536 582 648 710 675 586 245
0 0 0 0 0 0 0 0 0 0 0 0 0 0 0 0 0 0 0 0 0 0 0 0 0 0 0 0 0 0 0 25 71 123 190 315 501 621 708 784 771 735 500
0 0 0 0 0 0 0 0 0 0 0 0 0 0 0 0 0 0 0 0 0 0 0 0 0 0 0 0 0 0 0 8 1 56 179 233 363 524 678 907 827 768 779
0 0 0 0 0 0 0 0 0 0 0 0 0 0 0 0 0 0 0 0 0 0 0 0 0 0 0 0 0 0 0 0 0 0 7 145 284 497 539 763 818 725 752
0 0 0 0 0 0 0 0 0 0 0 0 0 0 0 0 0 1 0 0 0 0 0 0 0 0 0 0 0 0 0 0 0 0 0 0 19 99 295 457 548 744 924
0 0 0 0 0 0 4 1 1 2 5 7 2 1 0 0 0 0 1 0 0 0 0 0 0 0 0 0 0 0 0 0 0 0 6 9 65 217 478 561 547 606 732
0 0 0 0 0 0 13 32 50 50 79 86 69 47 12 8 2 1 3 1 0 0 0 0 0 0 0 0 0 0 0 0 0 0 11 18 265 469 658 635 616 611 739
0 0 0 0 0 0 0 0 16 85 128 135 124 135 152 155 114 81 121 81 97 17 1 4 0 0 0 0 0 0 0 0 0 2 21 96 437 484 661 818 650 689 643
0 0 0 0 0 0 0 0 0 0 1 13 33 61 91 95 112 173 190 165 103 95 43 24 0 0 0 0 0 0 0 0 0 0 74 265 247 326 383 667 920 887 766
0 0 0 0 0 0 0 0 0 0 0 0 0 0 0 0 15 83 147 235 228 94 34 45 55 1 0 0 0 0 0 0 0 0 4 4 39 170 213 294 460 411 365
0 0 0 0 0 0 0 0 0 0 0 0 0 0 0 0 0 3 110 161 191 218 107 26 46 82 12 0 0 0 0 0 0 0 6 0 0 11 99 151 220 192 83
0 0 0 0 0 0 0 0 0 0 0 0 0 0 0 0 0 0 10 39 51 86 112 1 46 76 79 2 0 0 0 0 0 0 1 4 0 0 29 50 15 1 0
0 0 0 0 0 0 0 0 0 0 0 0 0 0 0 0 6 6 11 18 19 22 74 19 2 8 35 90 0 0 0 0 0 0 0 0 1 2 0 2 0 0 0
0 0 0 0 0 0 0 0 0 0 0 0 0 0 2 10 0 0 9 15 13 16 23 31 4 5 9 28 0 0 0 0 0 0 0 0 0 0 0 0 0 1 3
0 0 0 0 0 0 0 0 0 0 0 0 0 12 4 0 0 0 6 10 15 18 27 30 31 5 6 3 3 6 0 0 0 0 0 0 1 2 4 3 5 5 7
0 0 0 0 0 0 0 0 0 0 0 0 2 0 0 0 0 20 7 0 15 12 13 21 19 53 26 9 0 0 0 0 0 0 0 0 0 0 0 5 2 4 5
0 0 0 0 0 0 0 0 0 0 0 0 0 0 0 0 0 0 0 2 14 26 33 26 13 15 6 20 41 61 36 0 0 0 0 0 0 0 0 0 3 9 8
0 0 0 0 0 0 0 0 1 0 0 0 0 0 0 0 0 0 0 3 0 14 44 27 16 6 5 4 41 42 30 39 0 0 0 0 0 0 0 0 9 9 10
0 0 0 0 0 0 0 0 0 0 0 0 0 0 0 0 0 0 0 0 3 5 3 10 9 5 4 8 14 9 8 7 0 0 0 0 0 0 0 0 12 10 12
0 0 0 0 0 0 0 0 0 0 0 0 0 0 1 4 9 21 7 9 7 4 9 17 18 11 13 15 16 5 1 0 0 0 0 0 0 0 0 0 0 13 15
0 0 0 0 0 0 0 0 0 0 0 0 0 0 32 16 19 14 9 11 6 12 15 12 7 7 4 1 1 1 3 0 0 0 0 0 0 0 0 1 1 0 2

GFSMA_con_sbcape_012.txt.gz
CAPE
0 0 0 0 0 0 0 0 0 0 0 0 0 0 0 0 0 0 0 0 0 0 0 0 0 5 21 159 189 164 123 104 52 79 88 84 85 18 8 9 19 15 16
0 0 0 0 0 0 0 0 0 0 0 0 0 0 0 0 0 0 0 0 0 0 0 0 0 0 2 25 243 259 229 199 171 161 169 184 189 208 162 91 99 95 51
0 0 0 0 0 0 0 0 0 0 0 0 0 0 0 0 0 0 0 0 0 0 0 0 0 0 0 0 7 201 294 223 201 213 237 237 259 260 312 345 336 339 213
0 0 0 0 0 0 0 0 0 0 0 0 0 0 0 0 0 0 0 0 0 0 0 0 0 0 0 0 0 17 112 166 221 246 243 262 306 294 331 384 457 474 481
0 0 0 0 0 0 0 0 0 0 0 0 0 0 0 0 0 0 0 0 0 0 0 0 0 0 0 0 0 0 34 63 72 123 243 356 367 403 431 490 443 527 555
0 0 0 0 0 0 0 0 0 0 0 0 0 0 0 0 0 0 0 0 0 0 0 0 0 0 0 0 0 0 16 75 48 53 89 145 259 444 497 432 468 607 560
0 0 0 0 0 0 0 0 0 0 0 0 0 0 0 0 0 0 0 0 0 0 0 0 0 0 0 0 0 0 0 1 147 171 172 194 212 277 431 553 479 406 497
0 0 0 0 0 0 0 0 0 0 0 0 0 0 0 1 0 0 0 0 0 0 0 0 0 0 0 0 0 0 0 0 0 38 262 339 374 379 439 499 560 564 609
0 0 0 0 0 0 0 0 0 7 12 1 0 0 9 36 39 5 0 0 0 0 0 0 0 0 0 0 0 0 0 0 0 14 45 226 441 548 638 628 626 627 585
0 0 0 0 0 0 0 0 0 0 5 20 21 26 20 25 53 30 26 0 0 0 0 0 0 0 0 0 0 0 0 0 0 25 107 137 131 156 217 787 785 659 564
0 0 0 0 0 0 0 0 0 0 0 0 0 1 4 0 6 37 12 1 0 10 1 0 0 0 0 0 0 0 0 0 8 84 215 352 352 360 389 546 903 908 686
0 0 0 0 0 0 0 0 0 0 0 0 0 0 0 7 11 18 15 6 9 1 1 9 11 0 0 0 0 0 0 0 28 137 352 598 647 639 580 693 977 992 911
0 0 0 0 0 0 0 0 0 0 0 0 0 0 0 0 0 14 23 12 17 10 4 1 11 38 40 2 0 0 0 0 13 35 240 679 829 844 793 767 965 1047 949
0 0 0 0 0 0 0 0 0 0 0 0 0 0 0 0 0 0 6 38 4 3 3 2 5 17 39 47 39 0 0 0 0 43 134 393 454 395 497 653 736 777 773
0 0 0 0 0 0 0 0 0 0 0 0 0 0 0 0 0 0 9 48 45 22 1 0 0 0 11 6 5 9 37 39 88 59 37 36 17 83 100 120 292 407 446
0 0 0 0 0 0 0 0 0 0 0 0 0 0 0 0 0 1 54 32 10 49 32 0 0 0 0 0 2 15 12 10 33 118 141 69 26 7 6 31 23 48 109
0 0 0 0 0 0 0 0 0 0 0 0 0 0 0 0 0 7 16 0 0 6 57 1 0 0 0 0 10 34 35 41 52 63 193 177 120 50 24 15 24 29 30
0 0 0 0 0 0 0 0 0 0 0 0 0 0 0 10 0 0 0 0 0 36 0 0 0 0 0 0 0 0 8 25 25 33 111 154 138 134 75 35 41 25 16
0 0 0 0 0 0 0 0 0 0 0 0 0 0 0 0 0 0 0 0 12 1 0 0 0 0 0 0 1 0 0 0 4 22 48 96 151 88 107 65 29 12 17
0 0 0 0 0 0 0 0 0 0 0 0 0 0 0 0 0 0 0 0 34 8 6 10 16 8 0 0 1 1 0 0 0 6 13 9 22 13 28 40 13 15 4
0 0 0 0 0 0 0 0 0 0 0 0 0 0 0 0 0 2 8 5 22 29 38 48 34 8 9 3 2 5 10 11 10 2 5 0 0 2 0 0 1 0 0
0 0 0 0 0 0 0 0 0 0 0 0 0 0 0 0 0 23 30 42 40 33 30 31 27 10 6 5 6 20 25 23 17 8 22 26 1 5 0 0 0 4 0
0 0 0 0 0 0 0 0 0 0 0 0 0 0 0 0 7 4 18 40 37 53 46 20 16 8 5 0 36 5 15 6 13 11 23 9 7 7 11 0 5 4 6
0 0 0 0 0 0 0 0 5 0 0 0 0 0 1 11 0 18 10 5 5 0 0 8 13 3 3 25 9 29 27 11 9 3 2 6 4 3 1 0 0 3 6
0 0 0 0 0 0 0 4 8 0 0 0 0 0 27 2 29 51 39 25 0 10 5 22 53 55 51 21 17 13 5 8 5 5 4 10 2 1 0 0 0 2 4
0 0 0 0 0 0 0 10 11 4 5 0 1 18 10 27 57 49 20 21 13 0 0 5 7 12 6 4 14 12 5 4 4 5 1 3 4 0 0 0 0 0 0

GFSMA_con_sbcape_015.txt.gz
CAPE
0 0 0 0 0 0 0 0 0 0 0 0 0 0 0 0 0 0 0 0 0 0 0 0 0 0 0 2 32 180 198 195 143 112 125 133 133 135 50 24 15 14 17
0 0 0 0 0 0 0 0 0 0 0 0 0 0 0 0 0 0 0 0 0 0 0 0 0 0 0 0 5 54 185 338 239 191 151 143 155 178 196 213 214 219 158
0 0 0 0 0 0 0 0 0 0 0 0 0 0 0 0 0 0 0 0 0 0 0 0 0 0 0 0 1 15 34 178 377 306 243 190 177 203 222 255 270 300 363
0 0 0 0 0 0 0 0 0 0 0 0 0 0 0 0 0 0 0 0 0 0 0 0 0 0 0 0 0 5 47 46 20 229 375 370 269 248 263 298 350 383 427
0 0 0 0 0 0 0 0 0 0 0 0 0 0 0 0 0 0 0 0 0 0 0 0 0 0 0 0 0 3 124 107 82 99 184 319 469 461 427 424 433 406 450
0 0 0 0 0 0 0 0 1 1 0 1 0 0 2 1 0 0 0 0 0 0 0 0 0 0 0 0 0 0 16 254 239 182 157 183 269 395 512 528 525 518 547
0 0 0 0 0 0 0 1 4 3 5 13 1 0 0 4 0 0 0 0 0 0 0 0 0 0 0 0 0 0 0 1 149 310 350 329 312 337 397 481 548 593 575
0 0 0 0 0 0 0 0 0 0 2 4 29 33 29 6 14 15 11 0 0 0 0 0 0 0 0 0 0 0 0 0 4 65 311 425 495 542 591 575 555 564 584
0 0 0 0 0 0 0 0 0 0 0 0 0 9 17 20 8 0 11 4 3 3 0 0 0 0 0 0 0 0 0 0 0 57 146 402 591 667 736 737 740 761 738
0 0 0 0 0 0 0 0 0 0 0 0 0 0 0 3 5 6 0 0 1 5 3 1 8 5 0 0 0 0 0 0 0 33 174 259 340 363 488 870 907 921 725
0 0 0 0 0 0 0 0 0 0 0 0 0 0 0 0 0 13 13 1 9 4 6 10 1 7 19 60 66 28 0 0 11 147 377 468 550 596 653 651 783 1046 928
0 0 0 0 0 0 0 0 0 0 0 0 0 0 7 22 35 47 36 11 14 2 14 25 32 29 48 180 150 50 20 66 99 243 366 526 655 585 778 829 885 1131 1086
0 0 0 0 0 0 0 0 0 0 0 0 0 2 5 3 0 2 33 32 43 15 24 18 32 47 58 89 78 39 33 139 194 242 296 383 405 527 526 645 698 861 1161
0 0 0 0 0 0 0 0 0 0 0 0 0 0 0 0 0 0 20 63 39 22 6 1 1 6 20 25 30 3 0 0 13 127 83 125 308 265 316 434 447 389 630
0 0 0 0 0 0 0 0 0 0 0 0 0 0 0 0 0 6 37 75 75 62 0 0 0 0 32 15 4 0 0 2 45 66 121 154 197 235 303 319 273 264 311
0 0 0 0 0 0 0 0 0 0 0 0 0 0 0 0 0 26 20 8 34 13 20 0 0 37 0 0 0 0 0 0 0 27 46 27 71 139 178 200 211 209 197
0 0 0 0 0 0 0 0 0 0 0 0 0 0 0 0 0 0 4 8 3 0 14 0 34 18 2 1 5 6 0 0 30 61 68 13 11 83 127 141 138 154 171
0 0 0 0 0 0 0 0 0 0 0 0 0 0 0 0 0 0 0 0 16 21 58 51 62 35 23 32 58 47 20 50 35 5 0 83 2 0 2 73 104 108 87
0 0 0 0 0 0 0 0 0 0 0 0 0 0 0 0 0 0 4 15 37 37 68 83 55 53 66 72 51 43 56 42 38 18 4 2 10 0 0 0 0 53 85
0 0 0 0 0 0 0 0 0 0 0 0 0 0 0 0 0 10 15 37 42 69 67 57 55 53 50 31 45 30 36 33 28 42 37 16 19 9 1 5 5 7 28
0 0 0 0 0 0 0 0 0 0 0 0 0 0 0 2 10 27 49 54 67 58 57 60 52 60 52 41 31 20 20 29 41 63 38 4 47 40 14 0 1 22 6
0 0 0 0 0 0 0 0 0 0 0 0 1 0 2 7 19 51 40 50 58 50 62 90 61 61 54 55 51 54 58 15 55 49 8 27 14 44 43 3 0 0 9
0 0 0 0 0 0 0 0 2 3 7 4 7 15 14 24 48 46 42 60 58 29 20 56 74 65 79 29 51 48 7 25 37 29 20 10 10 15 8 3 9 3 11
0 0 0 0 0 0 0 1 8 6 8 6 9 14 22 45 40 39 43 70 5 0 25 52 51 54 66 54 50 44 44 37 32 16 18 22 14 5 8 32 43 38 35
0 0 0 0 0 0 0 5 17 10 9 11 17 12 44 24 22 56 77 20 9 14 11 18 36 41 40 31 38 30 32 38 24 13 37 16 5 5 2 7 1 0 2
0 0 0 0 0 0 0 10 20 21 22 22 20 42 18 23 45 112 30 16 25 22 32 33 23 4 8 13 22 31 35 29 31 21 39 19 29 15 12 1 0 0 1

GFSMA_con_sbcape_018.txt.gz
CAPE
0 0 0 0 0 0 0 1 1 1 0 1 1 0 1 0 0 0 0 0 0 0 0 0 0 0 0 3 6 24 39 224 268 233 151 153 171 168 146 92 99 114 96
0 0 0 0 0 0 0 0 0 0 0 0 0 0 0 2 2 2 2 0 0 0 0 0 0 0 0 0 0 22 28 148 273 394 293 249 199 193 204 213 212 220 223
0 0 0 0 0 1 0 0 0 2 3 4 5 4 5 6 4 5 7 3 2 0 0 0 1 1 1 2 2 12 69 84 115 236 409 393 361 239 240 252 262 265 327
0 0 0 1 1 0 1 3 7 9 12 14 13 14 14 10 4 5 4 3 2 0 0 0 0 0 1 27 63 80 181 126 111 131 223 358 442 352 356 327 310 353 370
0 0 0 2 3 5 6 6 4 5 7 10 5 7 7 5 5 7 9 5 1 0 0 0 0 0 0 0 7 75 192 291 224 191 182 180 211 406 442 481 421 397 426
0 0 0 0 0 0 0 0 0 0 1 6 4 5 3 0 1 4 11 15 22 17 15 13 6 1 0 0 0 1 21 90 275 262 270 271 260 269 348 462 590 565 557
0 0 0 0 0 0 0 0 0 0 0 0 0 0 0 0 7 1 33 36 18 22 31 57 58 46 25 9 0 0 0 28 83 223 298 311 348 326 381 451 438 536 693
0 0 0 0 0 0 0 0 0 0 0 0 0 0 0 0 0 0 0 0 0 0 1 33 55 74 96 120 88 42 12 21 75 155 211 363 442 499 621 675 549 531 530
0 0 0 0 0 0 0 0 0 0 0 0 0 0 0 0 0 0 0 0 0 0 0 0 3 7 19 47 83 97 33 43 68 135 232 225 346 394 365 681 935 939 758
0 0 0 0 0 0 0 0 0 0 0 0 0 0 0 0 0 0 0 0 0 0 0 0 0 0 1 8 68 72 72 120 186 253 277 277 303 353 463 591 800 1197 1108
0 0 0 0 0 0 0 0 0 0 0 0 0 0 0 0 0 0 0 0 0 0 0 0 0 3 2 12 24 39 114 52 119 196 309 365 416 447 358 381 942 934 1192
0 0 0 0 0 0 0 0 0 0 0 0 0 0 0 0 0 0 0 0 0 0 0 0 0 14 31 9 10 14 3 0 0 1 11 59 140 172 199 313 547 268 192
0 0 0 0 0 0 0 0 0 0 0 0 0 0 0 0 0 0 0 0 0 0 1 0 1 9 15 25 24 32 6 0 0 0 2 14 22 25 34 126 190 161 135
0 0 0 0 0 0 0 0 0 0 0 0 0 0 0 0 0 0 1 30 31 16 1 0 0 0 3 6 31 60 1 11 1 2 11 1 0 22 28 13 42 131 155
0 0 0 0 0 0 0 0 0 0 0 0 0 0 0 0 0 0 0 16 35 31 10 0 0 0 0 0 3 41 19 20 37 0 0 2 12 51 63 43 24 50 120
0 0 0 0 0 0 0 0 0 0 0 0 0 0 0 0 0 0 0 0 2 25 40 0 0 0 0 4 40 34 21 29 36 18 4 4 30 54 20 0 33 39 39
0 0 0 0 0 0 0 0 0 0 0 0 0 0 0 0 0 0 0 0 0 11 66 24 26 8 4 19 24 21 34 28 42 20 3 34 10 36 43 47 3 17 49
0 0 0 0 0 0 0 0 0 0 0 0 0 0 0 0 0 0 0 2 19 35 76 86 36 37 19 18 51 60 53 42 40 16 12 10 19 23 49 24 45 18 14
0 0 0 0 0 0 0 0 0 0 0 0 0 0 0 0 0 3 10 28 47 48 72 84 53 53 46 45 43 32 29 24 32 45 30 21 23 36 51 51 15 8 17
0 0 0 0 0 0 0 0 0 0 0 0 0 0 0 1 5 12 24 29 53 65 58 66 78 69 63 24 50 66 47 31 64 43 29 36 45 48 47 26 24 15 31
0 0 0 0 0 0 0 0 0 0 0 0 1 1 2 7 20 31 55 52 59 54 68 85 86 62 43 41 45 53 72 56 22 52 85 103 87 108 72 13 4 0 29
0 0 0 0 0 0 0 0 0 0 0 2 3 2 4 11 12 41 51 56 51 67 76 105 97 57 42 57 61 68 71 67 50 6 68 63 74 36 41 20 1 12 34
0 0 0 0 0 0 0 0 2 3 6 5 7 8 8 9 30 46 41 55 54 89 63 31 72 75 82 59 84 85 80 76 56 21 70 58 18 46 33 17 16 16 16
0 0 0 0 0 0 0 0 6 4 5 6 7 11 12 25 47 62 62 73 93 36 36 45 61 69 85 92 87 79 84 78 57 59 42 51 62 39 55 45 10 21 21
0 0 0 0 0 0 0 1 10 7 5 6 7 11 30 36 33 52 75 101 56 34 4 17 44 48 33 26 29 41 61 45 59 55 62 59 64 66 21 38 1 0 8
0 0 0 0 0 0 0 6 18 17 11 18 14 24 30 44 47 71 97 52 67 29 46 58 44 16 7 19 21 28 51 44 51 33 51 43 64 54 31 40 10 4 0

GFSMA_con_sbcape_024.txt.gz
CAPE
0 0 0 0 0 0 0 0 0 0 1 1 2 4 5 2 5 3 0 8 26 89 95 49 43 47 53 44 111 139 110 123 162 165 207 304 379 367 261 239 192 181 181
0 0 0 1 2 3 2 1 2 1 5 5 4 8 3 5 3 1 0 0 4 62 136 102 69 112 126 116 92 162 188 236 178 178 197 205 245 277 336 385 344 270 252
2 0 1 7 6 2 1 1 0 1 2 0 0 0 0 0 0 0 0 0 0 0 50 163 279 181 104 132 136 80 149 191 215 277 230 232 228 213 241 295 294 378 410
0 0 0 0 0 1 0 0 0 0 0 0 0 0 0 0 0 0 0 0 0 0 20 132 212 164 189 94 118 118 114 206 210 194 192 239 232 251 253 263 331 392 401
0 0 0 0 0 0 0 0 0 0 0 0 0 0 0 0 0 0 0 0 0 0 0 0 28 98 160 216 156 128 144 201 211 251 273 268 241 288 404 405 348 359 489
0 0 0 0 0 0 0 0 0 0 0 0 0 0 0 0 0 0 0 0 0 0 0 0 0 0 1 20 4 5 41 97 195 206 256 219 223 194 202 253 542 693 534
0 0 0 0 0 0 0 0 0 0 0 0 0 0 0 0 0 0 0 0 0 0 0 0 0 0 0 0 0 0 0 0 0 29 195 214 155 177 166 169 248 329 566
0 0 0 0 0 0 0 0 0 0 0 0 0 0 0 0 0 0 0 0 0 0 0 0 0 0 0 0 0 0 0 0 0 12 41 53 118 142 163 173 179 199 256
0 0 0 0 0 0 0 0 0 0 0 0 0 0 0 0 0 0 0 0 0 0 0 0 0 0 0 0 0 0 0 0 0 22 18 52 90 114 132 124 115 127 171
0 0 0 0 0 0 0 0 0 0 0 0 0 0 0 0 0 0 0 0 0 0 0 0 0 0 0 0 0 0 10 67 11 28 68 89 86 87 116 103 106 121 89
0 0 0 0 0 0 0 0 0 0 0 0 0 0 0 0 0 0 0 0 0 0 0 0 0 0 0 0 0 0 3 0 0 0 7 37 78 136 146 126 127 113 93
0 0 0 0 0 0 0 0 0 0 0 0 0 0 0 0 0 0 0 0 0 0 0 0 0 0 0 0 0 0 0 0 0 0 6 23 39 57 127 125 104 80 72
0 0 0 0 0 0 0 0 0 0 0 0 0 0 0 0 0 0 0 0 0 0 0 0 0 0 0 0 0 0 0 0 0 0 1 26 72 99 116 118 104 76 60
0 0 0 0 0 0 0 0 0 0 0 0 0 0 0 0 0 0 0 0 0 0 0 0 0 0 0 0 2 32 0 4 6 20 30 47 50 55 82 84 74 112 77
0 0 0 0 0 0 0 0 0 0 0 0 0 0 0 0 0 0 0 0 0 0 0 0 0 0 0 0 12 23 1 12 38 30 44 48 59 62 88 86 102 102 92
0 0 0 0 0 0 0 0 0 0 0 0 0 0 0 0 0 0 0 0 0 0 0 0 0 0 0 2 2 6 0 41 16 41 51 44 63 64 58 74 84 90 52
0 0 0 0 0 0 0 0 0 0 0 0 0 0 0 0 0 0 0 0 0 0 6 0 0 0 0 0 0 0 2 0 2 28 15 13 21 54 74 78 70 80 100
0 0 0 0 0 0 0 0 0 0 0 0 0 0 0 0 0 0 0 0 0 0 1 0 0 0 0 0 0 0 3 20 1 0 21 24 50 47 51 85 82 74 65
0 0 0 0 0 0 0 0 0 0 0 0 0 0 0 0 0 0 0 0 0 0 3 28 6 0 0 0 0 0 6 0 0 2 3 17 32 47 51 57 68 78 78
0 0 0 0 0 0 0 0 0 0 0 0 0 0 0 0 0 0 0 0 5 10 5 2 13 6 1 0 0 1 1 0 0 0 4 8 44 26 31 55 59 51 50
0 0 0 0 0 0 0 0 0 0 0 0 0 0 0 4 24 12 8 3 9 5 8 34 35 8 23 10 6 0 0 0 0 0 0 1 0 1 1 5 5 12 23
0 0 0 0 0 0 0 0 0 0 0 0 0 0 0 1 2 30 36 50 46 36 40 21 24 33 0 2 1 0 0 2 9 8 0 0 0 0 0 0 11 46 68
0 0 0 0 0 0 0 0 0 0 0 0 0 0 0 1 5 0 16 74 80 94 81 24 0 1 2 10 10 2 11 24 22 1 4 12 3 2 3 16 17 17 44
0 0 0 0 0 0 0 0 0 0 0 0 0 0 0 0 2 33 30 26 22 25 0 7 4 17 29 18 19 20 12 1 1 1 8 12 2 8 0 2 35 20 10
0 0 0 0 0 0 0 0 0 0 0 0 0 0 10 11 46 70 44 45 0 0 0 15 71 80 38 29 23 4 0 13 6 9 1 1 9 0 0 0 0 2 28
0 0 0 0 0 0 0 0 2 0 0 0 0 1 29 40 60 86 33 8 1 0 1 13 0 0 0 0 30 12 11 13 7 3 0 2 0 0 4 0 0 0 0